Location: Praha
(50.0830°N, 14.4670°E)
Time: 05:02:10
(UTC+02:00)

ISS - Pass Details

Date: 13 July 2024
Orbit: 409 x 423 km, 51.6° (Epoch: 24 July)

Event Time Altitude Azimuth Distance (km) Brightness Sun altitude
Rises 23:49:32 0° 276° (W) 2,338 0.4 -16.2°
Reaches altitude 10° 23:51:37 10° 279° (W) 1,477 -0.6 -16.3°
Maximum altitude 23:54:55 64° 2° (N) 459 -3.4 -16.5°
Drops below altitude 10° 23:58:13 10° 85° (E) 1,481 -1.1 -16.6°
Enters shadow 23:59:08 - 87° (E) 1,857 -0.6 -16.7°
